Regional Weather Roundup
Issued by NWS State College, PA

Home | Current Version | Previous Version | Text Only | Print | Product List | Glossary On
Versions: 1 2 3 4 5 6 7 8 9 10 11 12 13 14 15 16 17 18 19 20 21 22 23 24 25 26 27 28 29 30 31 32 33 34 35 36 37 38 39 40 41 42 43 44 45 46 47 48 49 50
000
ASUS41 KCTP 190703
RWRCTP

REGIONAL WEATHER ROUNDUP
NATIONAL WEATHER SERVICE STATE COLLEGE PA
300 AM EDT SUN APR 19 2015

Note: "fair" indicates few or no clouds below 12,000 feet with no
significant weather and/or obstructions to visibility.

* = STATION THAT DOES NOT REPORT PRECIPITATION /E.G. RAIN...SNOW...ETC/
    THUNDER OR FOG.

PAZ002>004-007>009-013>016-020>023-029>032-190800-
WESTERN PENNSYLVANIA

CITY           SKY/WX    TMP DP  RH WIND       PRES   REMARKS
ERIE           PTCLDY    44  27  51 NE7       30.12F
MEADVILLE      PTCLDY    45  24  43 NE7       30.09F
FRANKLIN*      PTCLDY    46  23  39 E8        30.10F
NEW CASTLE     FAIR      51  28  41 NE6       30.07F
BEAVER COUNTY  NOT AVBL
BUTLER*        CLOUDY    48  30  49 NE8       30.07F
PITTSBURGH INT CLOUDY    57  36  45 NE8       30.04F
PITTSBURGH     CLOUDY    57  33  40 NE5       30.03F
INDIANA*       CLOUDY    55  34  44 E10       30.10F
LATROBE        CLOUDY    52  41  66 N3        30.06F
WASHINGTON CO* CLOUDY    57  37  47 N6        30.05F
$$

PAZ004>006-010>012-017>019-024>028-033>037-041-042-045-046-049>053-190800-
CENTRAL PENNSYLVANIA

CITY           SKY/WX    TMP DP  RH WIND       PRES   REMARKS
BRADFORD       CLEAR     36  25  64 CALM      30.12S
DUBOIS         PTCLDY    48  26  42 E9        30.09F
CLEARFIELD     PTCLDY    49  27  42 N5        30.12S
JOHNSTOWN      MOCLDY    52  33  48 NE9       30.06F
ALTOONA        MOCLDY    52  30  43 NE8       30.09F
STATE COLLEGE  PTCLDY    51  26  38 NE7       30.12R
WILLIAMSPORT   PTCLDY    47  30  51 CALM      30.12S
SELINSGROVE    MOCLDY    46  34  62 N3        30.12S
FT INDIANTOWN  PTCLDY    54  29  38 NE2       30.11R
CAPITAL CITY   PTCLDY    59  27  29 NE8       30.10R
HARRISBURG     MOCLDY    58  26  29 NE5       30.10R
YORK           MOCLDY    56  34  43 E3        30.10R
$$

PAZ038>040-043-044-047-048-054-055-060>062-067>071-190800-
EASTERN PENNSYLVANIA

CITY           SKY/WX    TMP DP  RH WIND       PRES   REMARKS
SCRANTON       PTCLDY    50  25  37 NE3       30.12R
MOUNT POCONO   PTCLDY    46  22  38 NE8       30.11R
ALLENTOWN      MOCLDY    52  27  38 NE6       30.12R
QUAKERTOWN*    PTSUNNY   54  28  37 CALM      30.12S
READING        PTCLDY    57  24  28 NE5       30.11R
LANCASTER      PTCLDY    54  28  36 NE7       30.10R
COATESVILLE    MOSUNNY   57  27  30 NE6       30.11S
POTTSTOWN      PTCLDY    55  26  32 NE5       30.12S
BLUE BELL      PTCLDY    59  28  31 CALM      30.11R
DOYLESTOWN     PTCLDY    54  25  32 NE5       30.11R
WILLOW GROVE   NOT AVBL
NORTH PHILA    PTCLDY    61  20  20 NE12      30.12R
PHILADELPHIA   PTCLDY    63  25  23 NE15      30.11R
$$


USA.gov is the U.S. government's official web portal to all federal, state and local government web resources and services.